Weather Service Report


789 
ASUS44 KLIX 112311
RWRLIX
NEW ORLEANS REGIONAL WEATHER ROUNDUP
NATIONAL WEATHER SERVICE NEW ORLEANS LA
500 PM CST THU FEB 11 2016

NOTE: "FAIR" INDICATES FEW OR NO CLOUDS BELOW 12,000 FEET WITH NO
      SIGNIFICANT WEATHER AND/OR OBSTRUCTIONS TO VISIBILITY.
      SKY/WX - SKY CONDITION AND SIGNIFICANT WEATHER.
      TMP - AIR TEMPERATURE.     DP    - DEWPOINT TEMPERATURE.
      RH  - RELATIVE HUMIDITY.   PRES  - PRESSURE.
      HI  - HEAT INDEX.          WCI   - WIND CHILL INDEX.

*  THESE STATIONS ARE NOT NWS OR FAA STATIONS AND ARE NOT UNDER
   NWS QUALITY CONTROL. 

LAZ038-040-048-061>063-065>067-069-120000-
SOUTHEAST LOUISIANA
  
CITY           SKY/WX    TMP DP  RH WIND       PRES   REMARKS
N.O. AUDUBON     N/A     70  55  59 MISG        N/A                   
N.O. INTL ARPT PTCLDY    72  52  49 SW15      30.15R                  
N.O. LAKEFRONT CLEAR     65  52  62 W20       30.15R                  
N.O. DOWNTOWN*   N/A     72  54  53 MISG      30.16S                  
RESERVE*         N/A     72  55  55 SW16      30.15S                  
SLIDELL        CLEAR     72  55  55 SW7       30.14R                  
BATON ROUGE    CLEAR     72  49  44 SW16      30.13R                  
BOOTHVILLE     CLEAR     64  58  80 SW12      30.20R                  
BELLE CHASSE   PTCLDY    69  54  58 SW12G25   30.16R                  
BOGALUSA*        N/A     76  47  35 SW9       30.12R                  
GALLIANO*      CLEAR     70  58  66 SW14      30.19R                  
NEW ROADS*       N/A     72  52  50 SW15      30.13R                  
GONZALES*        N/A     72  54  53 SW12G17   30.15R                  
HAMMOND*       CLEAR     73  46  38 W9        30.12R                  
HOUMA*         NOT AVBL                                               
PORT FOURCHON* CLEAR     64  59  82 SW12      30.21R                  

$$

MSZ070-080>082-120000-
SOUTHERN MISSISSIPPI
  
CITY           SKY/WX    TMP DP  RH WIND       PRES   REMARKS
MCCOMB         CLEAR     73  48  41 SW9       30.11R                  
GULFPORT       CLEAR     70  52  52 SW6       30.13R                  
BILOXI         CLEAR     63  56  79 SW10      30.13R                  
PASCAGOULA     CLEAR     64  56  75 VRB5      30.14R                  
STENNIS ARPT*  CLEAR     72  46  40 MISG      30.14R                  

$$

COASTAL OBSERVATIONS
LAKE AND NEARSHORE STATIONS
  
STATION/POSITION TIME  TEMP    WIND        PRES    WAVE
                       AIR SEA DIR/SP/G            HT/PER
                 (UTC) (F)     (DEG/KT/KT) (MB)    (FT/S)
PASCAGOULA       2200   62                 1019.8
WAVELAND YACHT   2200   72 57              1019.7
GRAND ISLE       2200   67 60              1022.3
NEW CANAL        2200   72 55              1019.7
SHELL BEACH      2200   70 54              1020.2

OFFSHORE STATIONS
  
STATION/POSITION TIME  TEMP    WIND        PRES    WAVE
                       AIR SEA DIR/SP/G            HT/PER
                 (UTC) (F)     (DEG/KT/KT) (MB)    (FT/S)

$$

  


790 
ASUS44 KLIX 112311
RWRLA 
LOUISIANA WEATHER ROUNDUP
NATIONAL WEATHER SERVICE NEW ORLEANS LA
500 PM CST THU FEB 11 2016

NOTE: "FAIR" INDICATES FEW OR NO CLOUDS BELOW 12,000 FEET WITH NO
      SIGNIFICANT WEATHER AND/OR OBSTRUCTIONS TO VISIBILITY.
      SKY/WX - SKY CONDITION AND SIGNIFICANT WEATHER.
      TMP - AIR TEMPERATURE.    DP   - DEWPOINT TEMPERATURE.
      RH  - RELATIVE HUMIDITY.  PRES - PRESSURE.
      HX  - HEAT INDEX.         WCI  - WIND CHILL INDEX.

*  THESE STATIONS ARE NOT NWS OR FAA STATIONS AND ARE NOT UNDER
   NWS QUALITY CONTROL.

LAZ040-048-061>063-065-066-069-120000-
SOUTHEAST LOUISIANA
  
CITY           SKY/WX    TMP DP  RH WIND       PRES   REMARKS
N.O. AUDUBON     N/A     70  55  59 MISG        N/A                   
N.O. INTL ARPT PTCLDY    72  52  49 SW15      30.15R                  
N.O. LAKEFRONT CLEAR     65  52  62 W20       30.15R                  
N.O. DOWNTOWN* FAIR      72  54  53 MISG      30.16S                  
RESERVE*       FAIR      72  55  55 SW16      30.15S                  
SLIDELL        CLEAR     72  55  55 SW7       30.14R                  
BATON ROUGE    CLEAR     72  49  44 SW16      30.13R                  
BOOTHVILLE     CLEAR     64  58  80 SW12      30.20R                  
BELLE CHASSE   PTCLDY    69  54  58 SW12G25   30.16R                  
BOGALUSA*        N/A     76  47  35 SW9       30.12R                  
GALLIANO*      CLEAR     70  58  66 SW14      30.19R                  
NEW ROADS*     FAIR      72  52  50 SW15      30.13R                  
GONZALES*      FAIR      72  54  53 SW12G17   30.15R                  
HAMMOND*       CLEAR     73  46  38 W9        30.12R                  
HOUMA*         NOT AVBL                                               
PORT FOURCHON* CLEAR     64  59  82 SW12      30.21R                  

$$

LAZ041-044-053-054-120000-
SOUTHWEST LOUISIANA
  
CITY           SKY/WX    TMP DP  RH WIND       PRES   REMARKS
LAKE CHARLES   SUNNY     69  57  65 SW12G21   30.15R                  
LAFAYETTE      CLEAR     70  53  54 W16G29    30.16R                  
PATTERSON      CLEAR     68  55  64 W12G23    30.20R                  
SALT POINT       N/A     60  57  89 CALM      30.18R                  
NEW IBERIA     CLEAR     69  56  62 SW16G23   30.17R                  
CHENAULT AIRPK NOT AVBL                                               

$$

LAZ027-028-120000-
CENTRAL LOUISIANA
  
CITY           SKY/WX    TMP DP  RH WIND       PRES   REMARKS
FORT POLK      SUNNY     76  44  32 SW10      30.09S                  
ALEXANDRIA INT CLEAR     75  44  33 SW8       30.08R                  
ALEXANDRIA     CLEAR     78  41  26 W8        30.09R                  

$$

LAZ001-002-120000-
NORTHWEST LOUISIANA
  
CITY           SKY/WX    TMP DP  RH WIND       PRES   REMARKS
SHREVEPORT     MOSUNNY   78  33  19 W9        30.06R                  
BARKSDALE AFB  SUNNY     76  36  23 W8        30.06R                  
DTN SHREVEPORT SUNNY     77  31  18 W7        30.06R                  

$$

LAZ014-016-120000-
NORTHEAST LOUISIANA
  
CITY           SKY/WX    TMP DP  RH WIND       PRES   REMARKS
MONROE         CLEAR     74  42  31 N7        30.08R                  
TALLULAH       CLEAR     71  45  39 N8        30.08R                  

$$

  

Return to Home page


Western Regional Climate Center, wrcc@dri.edu